Showing default

XM-8, 48838

Orbit data source: Space-Track

XM-8, 48838 is a payload satellite owned by Sirius XM (US) in GEO that was launched on Sun, 06 Jun 2021 UTC via an FALCON 9 launch vehicle from the Air Force Eastern Test Range (AFETR). Payload-class satellites include a variety of spacecraft equipped with specific instruments for various scientific and technological missions. These include communications satellites like Starlink; space stations such as the ISS; scientific satellites like the Hubble; Earth observation satellites from companies like Planet Labs, Umbra, and HawkEye 360; GPS; miniature CubeSats for education and research; and military/defense satellites.

Loading next visibility...
Identifier
48838, 2021-049A
Orbit
GEO
Country
Flag of USUS
Related business
Manufacturer
Maxar Space Sol
Mission
Operational Commercial Communications
Bus & Motor
LS-1300, R-4D
Mass
~7,000 kg wet, ~2,884 kg dry
Launch date (UTC)
2021-06-06 (5 years ago)
Launch vehicle
FALCON 9
Launch site
Air Force Eastern Test Range (AFETR)
Object type
Payload
Rocket body
Debris
Shape & HBR
Box + 2 Pan, 15.0 m
Radar Cross Section
81.349 m², Large (>1 m²)

Expand to show TLE details & history
Last TLE update: 2 days ago

TLE from 2 days ago
0 XM-8
1 48838U 21049A   26092.37673851 -.00000211  00000-0  00000-0 0  9991
2 48838   0.0442  35.4209 0004773 357.3694 208.4066  1.00271317 17831
Epoch: 2026-04-02T09:02Z
TLE epoch observation values (Epoch: 2026-04-02T09:02:30.207Z)
Latitude
0.01579°
Longitude
-85.16845°
Altitude
35,803.95 km
Speed
3.073 km/s
True Right ascension
16h 04m 44s
True Declination
0° 00' 57"
Sunlit
Object was in daylight at epoch
Visualization orbit readout
Latitude
Unknown
Longitude
Unknown
Altitude
Unknown
Speed
Unknown
Apparent Right ascension
Unknown
Apparent Declination
Unknown
Sunlit
N/A
Visualization observer readout
Local Sidereal Time
06:24:27
Azimuth
Unknown
Elevation
Unknown
Doppler factor
Unknown
Orbital elements
Apogee altitude
35,807.922 km
Perigee altitude
35,767.671 km
Semi-major axis
42,165.934 km
Eccentricity
0.00048
Inclination
0.0442°
RAAN
35.4209°
Arg. of periapsis
357.3694°
True anomaly
208.38059°
Mean anomaly
208.4066°
Eccentric anomaly
208.3936°
Mean motion
0.25067 °/min
Orbital period
1,436.16 mins
BSTAR
0
Loading maneuver chart data...
Computing Atmospheric mass density...
Loading historical data...
Loading historical data...
Loading historical data...
Loading historical data...
Loading historical data...
Loading historical data...
Loading historical data...
Other satellites on launch #49 in the year 2021 (2021-06-06 UTC)

Documentation

Showing up to 5 results
|